Preview of NWS' New Version of Forecast
This preview is not operational and should not be used for support decisions.

Regional Weather Roundup (RWR)

Issued by National Weather Service (NWS)

                            
000
ASUS43 KLSX 252357
RWRMO 

WEATHER SUMMARY FOR MISSOURI
NATIONAL WEATHER SERVICE SPRINGFIELD MO
700 PM CDT SUN AUG 25 2019

NOTE: "FAIR" INDICATES FEW OR NO CLOUDS BELOW 12,000 FEET WITH NO
       SIGNIFICANT WEATHER AND/OR OBSTRUCTIONS TO VISIBILITY.
       CURRENT SKY AND/OR WEATHER CONDITIONS ARE NOT AVAILABLE FOR
       CHILLICOTHE AND FARMINGTON.

MOZ001>031-035>038-043-044-053-054-260100-
...NORTHERN AND WESTERN MISSOURI...
  
CITY           SKY/WX    TMP DP  RH WIND       PRES   REMARKS
KANSAS CTY INT CLOUDY    68  67  96 N9        29.81S                  
6HR MIN TEMP:  67; 6HR MAX TEMP:  69; 6HR PCP:  0.42;                

LEE'S SUMMIT   CLOUDY    71  66  84 W9        29.81R                  
6HR MIN TEMP:  69; 6HR MAX TEMP:  74; 6HR PCP:  1.43;                

ST JOSEPH      CLOUDY    70  66  87 NE6       29.83S                  
6HR MIN TEMP:  67; 6HR MAX TEMP:  70; 6HR PCP:  0.15;                

CHILLICOTHE      N/A     67  66  97 NE8       29.84F                  
6HR MIN TEMP:  67; 6HR MAX TEMP:  70; 6HR PCP:  0.86;                

     
$$
MOZ066>068-077>081-088>096-101>105-260100-
...SOUTHWEST MISSOURI...
  
CITY           SKY/WX    TMP DP  RH WIND       PRES   REMARKS
SPRINGFIELD    MOCLDY    75  68  78 S7        29.83R                  
6HR MIN TEMP:  68; 6HR MAX TEMP:  78; 6HR PCP:  0.50;                

JOPLIN         MOSUNNY   78  70  76 CALM      29.81F                  
6HR MIN TEMP:  69; 6HR MAX TEMP:  81; 6HR PCP: TRACE;                

BRANSON        MOCLDY    77  73  88 E6        29.84F                  
               
$$
MOZ032>034-039>042-045>050-055>058-069>072-260100-
...CENTRAL MISSOURI...  
  
CITY           SKY/WX    TMP DP  RH WIND       PRES   REMARKS
COLUMBIA       NOT AVBL                                               
JEFFERSON CITY MOCLDY    75  70  84 E10       29.80S                  
6HR MIN TEMP:  74; 6HR MAX TEMP:  77; 6HR PCP: TRACE;                

ROLLA          LGT RAIN  76  70  82 SE7       29.85R                  
6HR MIN TEMP:  75; 6HR MAX TEMP:  77; 6HR PCP: TRACE;                

SEDALIA        LGT RAIN  69  69 100 NW8       29.80R                  
6HR MIN TEMP:  69; 6HR MAX TEMP:  72; 6HR PCP:  0.24;                

WARRENSBURG    MOCLDY    72  68  88 CALM      29.79S                  
               
$$
MOZ051-052-059>065-260100-
...EAST CENTRAL MISSOURI...
  
CITY           SKY/WX    TMP DP  RH WIND       PRES   REMARKS
ST LOUIS INTL  CLOUDY    70  67  90 E9        29.89S                  
6HR MIN TEMP:  68; 6HR MAX TEMP:  71; 6HR PCP:  0.21;                

                   
$$
MOZ072>076-082>087-097>100-106>115-260100-
...SOUTH CENTRAL AND SOUTHEAST MISSOURI...
  
CITY           SKY/WX    TMP DP  RH WIND       PRES   REMARKS
CAPE GIRARDEAU CLOUDY    79  72  79 E7        29.88R                  
6HR MIN TEMP:  78; 6HR MAX TEMP:  82;                                

FARMINGTON     CLOUDY    73  73 100 E6        29.89F                  
POPLAR BLUFF   MOCLDY    77  73  87 E3        29.87S                  
6HR MIN TEMP:  72; 6HR MAX TEMP:  78; 6HR PCP:  0.24;                

WEST PLAINS    PTCLDY    78  72  81 SE5       29.87F                  
6HR MIN TEMP:  75; 6HR MAX TEMP:  78; 6HR PCP: TRACE;                

                                       
$$